Regional Weather Roundup
Issued by NWS Jackson, KY

Home | Current Version | Previous Version | Graphics & Text | Print | Product List | Glossary On
Versions: 1 2 3 4 5 6 7 8 9 10 11 12 13 14 15 16 17 18 19 20 21 22 23 24 25 26 27
000
ASUS43 KJKL 060810
RWRJKL

EAST KENTUCKY HOURLY WEATHER ROUNDUP
NATIONAL WEATHER SERVICE JACKSON KY
400 AM EDT FRI MAY 06 2016

NOTE: "FAIR" INDICATES FEW OR NO CLOUDS BELOW 12,000 FEET WITH
NO SIGNIFICANT WEATHER AND/OR OBSTRUCTIONS TO VISIBILITY.

* THESE REPORTS ARE NOT UNDER NWS QUALITY CONTROL AND MAY NOT
  REPORT WEATHER SUCH AS PRECIPITATION AND FOG.

KYZ079-080-083-085-087-088-110-112-115-119-120-060900
...EASTERN KENTUCKY...

CITY           SKY/WX    TMP DP  RH WIND       PRES   REMARKS
JACKSON        CLEAR     44  42  93 NW5       29.86S FOG
LONDON         CLEAR     44  41  89 CALM      29.89S
SOMERSET*      MOCLDY    43  43 100 CALM      29.92S FOG
MONTICELLO*    MOCLDY    45  43  93 NE7       29.94S
WILLIAMSBURG*  SUNNY     43  43 100 CALM      29.90S
MIDDLESBORO*   PTCLDY    49  44  82 NE3       29.88S
HARLAN APT*    PTSUNNY   46  41  81 CALM      29.86F
HAZARD APT*    SUNNY     46  46 100 W3        29.87S
BLACK MTN*       N/A     39  41 100 N9          N/A  WCI  33
PIKE CO APT*   CLOUDY    45  45  99 W3        29.84S
BIG SANDY APT* MOSUNNY   46  45  94 W5        29.84S
MOREHEAD APT*  PTSUNNY   45  43  93 NW6       29.89S FOG
$$

KYZ035-036-041-042-044-050-067-078-099-060900
...CENTRAL KENTUCKY...

CITY           SKY/WX    TMP DP  RH WIND       PRES   REMARKS
MT STERLING*   CLEAR     45  45 100 N3        29.90S
FLEMING/MASON* MOCLDY    46  42  84 NW7       29.89R
DANVILLE*      PTCLDY    46  45  93 NW7       29.92S
RICHMOND*      PTCLDY    46  43  87 W5        29.89F
LEXINGTON      PTCLDY    49  45  86 NW7       29.91S
FRANKFORT      CLEAR     49  44  83 NW5       29.91S
LOUISVILLE     CLEAR     53  43  68 N10       29.93F
LEBANON*         N/A     46  45  93 W3        29.93S
BOWLING GREEN  CLEAR     51  45  79 NW3       29.96S
$$

KYZ091>093-OHZ055-061-077-WVZ005-015-034-035-042-060900
...SOUTHERN OHIO/WEST VIRGINIA...

CITY           SKY/WX    TMP DP  RH WIND       PRES   REMARKS
COVINGTON      PTCLDY    49  45  86 N12       29.91S
COLUMBUS       CLOUDY    49  40  71 N9        29.86S
DAYTON         CLEAR     45  42  89 NW7       29.92S
WILMINGTON     CLEAR     48  39  71 N12       29.89S
HUNTINGTON     CLOUDY    50  43  77 NW5       29.83R
CHARLESTON     CLOUDY    50  45  83 W3        29.79S
PINEVILLE*     CLOUDY    48  45  87 MISG      29.83S FOG
BECKLEY        CLOUDY    46  44  93 NW10      29.76S
$$

VAZ002-007-008-TNZ017-027-036-066-071-060900
...SOUTHWEST VIRGINIA/EAST TENNESSEE...

CITY           SKY/WX    TMP DP  RH WIND       PRES   REMARKS
WISE*          CLOUDY    45  43  93 NW8       29.84R
BRISTOL        CLOUDY    49  44  83 SW6       29.82S
MORRISTOWN*    CLOUDY    48  45  87 VRB5      29.86S
SEVIERVILLE*   CLOUDY    48  43  81 SW3       29.88S
KNOXVILLE      CLOUDY    49  44  83 SW6       29.89F
OAK RIDGE      CLEAR     51  43  74 NW7       29.90F
CROSSVILLE     CLEAR     46  42  86 NW9       29.91F
NASHVILLE      CLEAR     49  43  80 W6        29.96F
$$

...KEY TO REMARKS...
VSB - VISIBILITY IN MILES
WCI - WIND CHILL INDEX
HX  - HEAT INDEX

$$




USA.gov is the U.S. government's official web portal to all federal, state and local government web resources and services.